Location: Deer Lodge Site
(39.6809°N, 119.9392°W)
Time: 00:24:12
(UTC-07:00)

Amateur Radio Satellites - All Passes

Search period start: 30 July 2014 23:54
Search period end: 31 July 2014 23:54
Location: Deer Lodge Site, 39.6809°N, 119.9392°W

Satellite Date Start Highest point End Downlink Frequencies (MHz)
Time Altitude Azimuth
UOSAT-12 30 Jul 23:57:07 00:01:23 34° 246° (WSW) 00:05:35 437.025 FM, 437.400 FM
FUNcube-1 30 Jul 23:59:59 00:01:41 12° 269° (W) 00:03:22 145.950 - 145.970 MHz USB
Sapphire 31 Jul 00:05:43 00:10:46 43° 111° (ESE) 00:15:51 437.095 MHz 1200 baud AX-25 AFSK
ISS 31 Jul 00:36:30 00:39:03 20° 338° (NNW) 00:41:36 145.800 FM
PCSat 31 Jul 00:38:28 00:43:52 89° 118° (ESE) 00:49:19 145.825 MHz
RS-15 31 Jul 00:57:25 01:05:04 22° 259° (W) 01:12:58 29.354 - 29.394 USB, Beacon 29.352 USB
Uribyol 2 31 Jul 01:46:07 01:46:35 10° 89° (E) 01:47:03 436.500 FM
Sapphire 31 Jul 01:49:43 01:54:19 28° 309° (NW) 01:58:57 437.095 MHz 1200 baud AX-25 AFSK
Oscar 19 31 Jul 02:08:26 02:13:18 40° 98° (E) 02:18:09 437.125 CW, 437.150 USB
AO-Echo 31 Jul 02:08:29 02:11:52 18° 92° (E) 02:15:10 ?
ISS 31 Jul 02:15:52 02:16:47 11° 358° (N) 02:17:43 145.800 FM
PCSat 31 Jul 02:24:49 02:28:02 16° 317° (NW) 02:31:16 145.825 MHz
OPAL 31 Jul 02:36:16 02:37:31 11° 57° (ENE) 02:38:46 ?
Oscar 16 31 Jul 02:37:00 02:42:12 80° 103° (ESE) 02:47:23 437.025 USB, Beacon 2401.1428
JAS-1B 31 Jul 02:58:31 03:07:05 42° 94° (E) 03:14:23 435.800 - 435.900 CW/SSB
ITAMSAT 1 31 Jul 03:02:40 03:07:47 60° 101° (E) 03:12:52 435.822 SSB
Uribyol 2 31 Jul 03:21:30 03:26:41 85° 284° (WNW) 03:31:50 436.500 FM
AO-27 31 Jul 03:22:28 03:27:41 87° 284° (WNW) 03:32:51 436.795 MHz FM
TMSAT-1 31 Jul 03:32:11 03:36:59 34° 97° (E) 03:41:45 436.925 FM
AO-7 31 Jul 03:38:12 03:40:49 12° 87° (E) 03:43:25 29.400 - 29.500 MHz
AO-Echo 31 Jul 03:46:05 03:50:55 48° 289° (WNW) 03:55:35 ?
Oscar 19 31 Jul 03:48:18 03:52:23 24° 294° (WNW) 03:56:29 437.125 CW, 437.150 USB
ISS 31 Jul 03:52:21 03:54:36 17° 19° (NNE) 03:56:52 145.800 FM
Gurwin Techsat 1B 31 Jul 03:57:45 04:03:05 83° 103° (ESE) 04:08:23 435.225 FM
Uosat F 31 Jul 04:07:50 04:10:40 15° 92° (E) 04:13:29 435.120 FM
OPAL 31 Jul 04:10:41 04:15:37 89° 74° (ENE) 04:20:37 ?
Oscar 16 31 Jul 04:18:35 04:20:51 13° 300° (WNW) 04:23:08 437.025 USB, Beacon 2401.1428
ITAMSAT 1 31 Jul 04:43:31 04:46:46 17° 298° (WNW) 04:50:01 435.822 SSB
JAS-1B 31 Jul 04:48:55 04:57:33 45° 296° (WNW) 05:05:00 435.800 - 435.900 CW/SSB
KITSAT 1 31 Jul 04:50:00 04:56:20 26° 105° (ESE) 05:02:40 435.175 FM
Uribyol 2 31 Jul 05:04:13 05:05:20 11° 302° (WNW) 05:06:26 436.500 FM
AO-27 31 Jul 05:05:01 05:06:22 11° 301° (WNW) 05:07:44 436.795 MHz FM
MaSat-1 31 Jul 05:07:17 05:10:25 16° 48° (NE) 05:13:29 437.345 MHz
PANSAT 31 Jul 05:11:11 05:13:29 15° 176° (S) 05:15:46 not established
TMSAT-1 31 Jul 05:12:17 05:16:47 29° 293° (WNW) 05:21:15 436.925 FM
AO-7 31 Jul 05:26:36 05:34:56 71° 105° (ESE) 05:43:11 29.400 - 29.500 MHz
ISS 31 Jul 05:28:25 05:31:47 76° 37° (NE) 05:35:08 145.800 FM
Gurwin Techsat 1B 31 Jul 05:40:00 05:42:19 13° 300° (WNW) 05:44:38 435.225 FM
Uosat F 31 Jul 05:44:54 05:49:50 59° 287° (WNW) 05:54:43 435.120 FM
Hamsat 31 Jul 06:33:41 06:37:44 38° 98° (E) 06:41:46 145.90 MHz
STRAND 1 31 Jul 06:37:42 06:42:44 57° 72° (ENE) 06:47:46 ?
KITSAT 1 31 Jul 06:43:00 06:51:03 68° 303° (WNW) 06:59:08 435.175 FM
MaSat-1 31 Jul 06:43:10 06:48:28 83° 247° (WSW) 06:53:23 437.345 MHz
JAS-1B 31 Jul 06:45:03 06:45:24 10° 318° (NW) 06:45:44 435.800 - 435.900 CW/SSB
PANSAT 31 Jul 06:51:04 06:52:59 13° 189° (S) 06:54:53 not established
Saudisat 1A 31 Jul 07:05:27 07:09:48 61° 119° (ESE) 07:14:10 436.775 MHz
ISS 31 Jul 07:06:59 07:08:03 11° 232° (SW) 07:09:08 145.800 FM
AO-7 31 Jul 07:20:26 07:26:59 27° 304° (NW) 07:33:31 29.400 - 29.500 MHz
JAS-2 31 Jul 07:29:34 07:35:25 86° 284° (WNW) 07:40:42 435.800 - 435.900 CW/SSB, 435.910 FM
PCSat 31 Jul 07:46:45 07:48:05 11° 38° (NE) 07:49:25 145.825 MHz
Hamsat 31 Jul 08:10:26 08:13:24 18° 293° (WNW) 08:16:22 145.90 MHz
STRAND 1 31 Jul 08:19:08 08:22:16 16° 268° (W) 08:25:24 ?
SO-67 31 Jul 08:28:53 08:32:17 53° 285° (WNW) 08:35:40 435.3500 MHz FM
KITSAT 1 31 Jul 08:42:40 08:48:05 19° 326° (NNW) 08:53:32 435.175 FM
Saudisat 1A 31 Jul 08:46:51 08:49:47 17° 317° (NW) 08:52:43 436.775 MHz
Sapphire 31 Jul 08:54:29 08:59:16 30° 52° (NE) 09:04:01 437.095 MHz 1200 baud AX-25 AFSK
HO-68 31 Jul 09:12:53 09:18:56 29° 95° (E) 09:24:56 435.675 MHz FM
JAS-2 31 Jul 09:17:35 09:19:24 12° 305° (NW) 09:21:10 435.800 - 435.900 CW/SSB, 435.910 FM
PCSat 31 Jul 09:27:19 09:32:41 59° 58° (ENE) 09:38:01 145.825 MHz
Oscar 11 31 Jul 09:43:25 09:45:52 15° 92° (E) 09:48:19 145.825 FM, Beacon 2401.500 USB
FUNcube-1 31 Jul 10:13:32 10:14:14 10° 90° (E) 10:14:55 145.950 - 145.970 MHz USB
UKube-1 31 Jul 10:35:41 10:40:02 74° 285° (WNW) 10:44:21 145.840 MHz, 145.915 MHz
Sapphire 31 Jul 10:37:45 10:42:44 38° 249° (WSW) 10:47:42 437.095 MHz 1200 baud AX-25 AFSK
HO-68 31 Jul 11:00:00 11:06:52 52° 293° (WNW) 11:13:42 435.675 MHz FM
RS-15 31 Jul 11:02:50 11:05:45 11° 95° (E) 11:08:39 29.354 - 29.394 USB, Beacon 29.352 USB
PCSat 31 Jul 11:11:59 11:15:35 18° 255° (WSW) 11:19:10 145.825 MHz
Oscar 11 31 Jul 11:18:08 11:22:17 46° 287° (WNW) 11:26:26 145.825 FM, Beacon 2401.500 USB
FUNcube-1 31 Jul 11:46:52 11:50:59 60° 285° (WNW) 11:55:10 145.950 - 145.970 MHz USB
Oscar 16 31 Jul 12:17:22 12:19:40 13° 60° (ENE) 12:21:58 437.025 USB, Beacon 2401.1428
SO-50 31 Jul 12:21:27 12:25:54 80° 302° (WNW) 12:30:28 436.795 FM
KITSAT 1 31 Jul 12:43:02 12:47:34 16° 29° (NNE) 12:52:04 435.175 FM
ITAMSAT 1 31 Jul 12:45:19 12:46:22 11° 58° (ENE) 12:47:25 435.822 SSB
Uribyol 2 31 Jul 13:01:39 13:04:50 17° 62° (ENE) 13:08:02 436.500 FM
AO-27 31 Jul 13:02:52 13:06:03 17° 62° (ENE) 13:09:15 436.795 MHz FM
RS-15 31 Jul 13:04:51 13:15:49 65° 115° (ESE) 13:26:33 29.354 - 29.394 USB, Beacon 29.352 USB
AO-Echo 31 Jul 13:20:04 13:24:17 24° 66° (ENE) 13:28:29 ?
Oscar 19 31 Jul 13:24:30 13:29:27 53° 72° (ENE) 13:34:27 437.125 CW, 437.150 USB
JAS-1B 31 Jul 13:39:56 13:48:05 38° 61° (ENE) 13:56:47 435.800 - 435.900 CW/SSB
Gurwin Techsat 1B 31 Jul 13:41:00 13:44:01 16° 61° (ENE) 13:47:02 435.225 FM
Oscar 16 31 Jul 13:53:13 13:58:20 78° 257° (WSW) 14:03:29 437.025 USB, Beacon 2401.1428
SO-50 31 Jul 14:05:27 14:07:15 12° 322° (NW) 14:09:04 436.795 FM
UOSAT-12 31 Jul 14:06:49 14:11:25 87° 121° (ESE) 14:16:07 437.025 FM, 437.400 FM
ITAMSAT 1 31 Jul 14:19:48 14:25:01 83° 75° (ENE) 14:30:15 435.822 SSB
AO-7 31 Jul 14:35:26 14:40:59 20° 52° (NE) 14:46:31 29.400 - 29.500 MHz
KITSAT 1 31 Jul 14:37:12 14:45:05 53° 53° (NE) 14:52:54 435.175 FM
Uribyol 2 31 Jul 14:38:39 14:43:47 62° 259° (WSW) 14:48:56 436.500 FM
AO-27 31 Jul 14:39:52 14:45:02 63° 258° (WSW) 14:50:13 436.795 MHz FM
TMSAT-1 31 Jul 14:52:03 14:57:08 49° 71° (ENE) 15:02:15 436.925 FM
AO-Echo 31 Jul 14:57:44 15:02:45 43° 262° (W) 15:07:48 ?
Oscar 19 31 Jul 15:05:50 15:09:07 17° 268° (W) 15:12:25 437.125 CW, 437.150 USB
Gurwin Techsat 1B 31 Jul 15:18:06 15:23:23 70° 258° (WSW) 15:28:42 435.225 FM
RS-15 31 Jul 15:18:40 15:28:47 40° 318° (NW) 15:38:53 29.354 - 29.394 USB, Beacon 29.352 USB
Uosat F 31 Jul 15:20:10 15:23:51 21° 64° (ENE) 15:27:32 435.120 FM
JAS-1B 31 Jul 15:29:11 15:37:58 60° 261° (W) 15:47:44 435.800 - 435.900 CW/SSB
Saudisat 1A 31 Jul 15:33:06 15:37:15 38° 52° (NE) 15:41:22 436.775 MHz
UOSAT-12 31 Jul 15:49:40 15:52:13 14° 320° (NW) 15:54:49 437.025 FM, 437.400 FM
ITAMSAT 1 31 Jul 16:03:55 16:05:06 11° 271° (W) 16:06:18 435.822 SSB
OPAL 31 Jul 16:21:49 16:25:59 25° 97° (E) 16:30:09 ?
AO-7 31 Jul 16:24:14 16:32:36 86° 71° (ENE) 16:41:01 29.400 - 29.500 MHz
KITSAT 1 31 Jul 16:33:05 16:40:09 35° 252° (WSW) 16:47:13 435.175 FM
TMSAT-1 31 Jul 16:33:32 16:37:18 20° 267° (W) 16:41:06 436.925 FM
Uosat F 31 Jul 16:57:27 17:02:17 46° 260° (W) 17:07:09 435.120 FM
Saudisat 1A 31 Jul 17:13:15 17:16:35 21° 249° (WSW) 17:19:54 436.775 MHz
Hamsat 31 Jul 17:26:47 17:30:11 25° 69° (ENE) 17:33:37 145.90 MHz
JAS-1B 31 Jul 17:28:53 17:30:30 11° 281° (W) 17:32:09 435.800 - 435.900 CW/SSB
RS-15 31 Jul 17:38:30 17:45:29 18° 351° (N) 17:52:31 29.354 - 29.394 USB, Beacon 29.352 USB
JAS-2 31 Jul 17:38:35 17:45:44 43° 68° (ENE) 17:52:24 435.800 - 435.900 CW/SSB, 435.910 FM
OPAL 31 Jul 18:00:14 18:04:55 38° 293° (WNW) 18:09:39 ?
AO-7 31 Jul 18:20:52 18:26:17 19° 269° (W) 18:31:43 29.400 - 29.500 MHz
STRAND 1 31 Jul 18:50:05 18:53:50 20° 94° (E) 18:57:34 ?
SO-67 31 Jul 19:01:08 19:04:23 39° 74° (ENE) 19:07:38 435.3500 MHz FM
Hamsat 31 Jul 19:02:35 19:06:04 25° 265° (W) 19:09:35 145.90 MHz
SO-50 31 Jul 19:15:14 19:17:06 12° 38° (NE) 19:18:59 436.795 FM
JAS-2 31 Jul 19:23:32 19:30:41 39° 263° (W) 19:37:26 435.800 - 435.900 CW/SSB, 435.910 FM
HO-68 31 Jul 19:41:51 19:46:58 22° 57° (ENE) 19:52:05 435.675 MHz FM
RS-15 31 Jul 19:54:45 20:03:25 25° 28° (NNE) 20:12:13 29.354 - 29.394 USB, Beacon 29.352 USB
STRAND 1 31 Jul 20:28:23 20:33:13 45° 289° (WNW) 20:38:02 ?
MaSat-1 31 Jul 20:33:14 20:37:09 50° 109° (ESE) 20:41:43 437.345 MHz
SO-67 31 Jul 20:36:53 20:37:38 11° 269° (W) 20:38:24 435.3500 MHz FM
Oscar 11 31 Jul 20:39:20 20:40:40 11° 63° (ENE) 20:42:00 145.825 FM, Beacon 2401.500 USB
SO-50 31 Jul 20:53:43 20:58:29 72° 57° (ENE) 21:03:18 436.795 FM
UOSAT-12 31 Jul 21:00:08 21:00:49 10° 35° (NE) 21:01:30 437.025 FM, 437.400 FM
HO-68 31 Jul 21:26:46 21:33:56 75° 255° (WSW) 21:41:07 435.675 MHz FM
UKube-1 31 Jul 21:30:08 21:34:30 86° 76° (ENE) 21:38:54 145.840 MHz, 145.915 MHz
RS-15 31 Jul 22:07:02 22:18:06 72° 55° (NE) 22:29:34 29.354 - 29.394 USB, Beacon 29.352 USB
ISS 31 Jul 22:10:10 22:13:16 37° 136° (SE) 22:16:23 145.800 FM
MaSat-1 31 Jul 22:11:51 22:14:53 18° 311° (NW) 22:18:13 437.345 MHz
Oscar 11 31 Jul 22:12:01 22:16:17 66° 259° (W) 22:20:35 145.825 FM, Beacon 2401.500 USB
SO-50 31 Jul 22:36:23 22:38:28 13° 252° (WSW) 22:40:34 436.795 FM
UOSAT-12 31 Jul 22:37:18 22:41:59 59° 55° (NE) 22:46:35 437.025 FM, 437.400 FM
FUNcube-1 31 Jul 22:42:18 22:46:36 85° 257° (WSW) 22:50:51 145.950 - 145.970 MHz USB
HO-68 31 Jul 23:20:48 23:22:42 11° 272° (W) 23:24:36 435.675 MHz FM
Sapphire 31 Jul 23:35:47 23:40:27 31° 109° (ESE) 23:45:09 437.095 MHz 1200 baud AX-25 AFSK
ISS 31 Jul 23:47:07 23:50:02 27° 333° (NNW) 23:52:58 145.800 FM
